Location: Killam
(52.7910°N, 111.8608°W)
Time: 15:54:21
(UTC+00:00)

Altair - All Passes

Search period start: 10 February 2026 00:00
Search period end: 20 February 2026 00:00
Orbit: 1502 x 1682 km, 47.2° (Epoch: 10 February)

Date Brightness Start Highest point End Pass type
(mag) Time Alt. Az. Time Alt. Az. Time Alt. Az.
10 Feb - 12:15:12 10° SSE 12:20:13 16° SE 12:25:18 10° E visible
10 Feb - 14:14:16 10° SW 14:22:46 42° SSE 14:31:34 10° E visible
10 Feb - 16:17:14 10° WSW 16:26:30 63° S 16:36:09 10° E daylight
10 Feb - 18:21:20 10° W 18:30:36 57° SSW 18:40:14 10° ESE daylight
10 Feb - 20:25:57 10° W 20:34:04 31° SW 20:42:23 10° SSE daylight
11 Feb - 11:50:49 10° SSE 11:55:11 14° SE 11:59:36 10° E visible
11 Feb - 13:49:16 10° SSW 13:57:38 39° SSE 14:06:17 10° E visible
11 Feb - 15:52:05 10° WSW 16:01:18 62° S 16:10:54 10° E daylight
11 Feb - 17:56:08 10° W 18:05:25 58° SSW 18:15:03 10° ESE daylight
11 Feb - 20:00:41 10° W 20:08:56 33° SW 20:17:24 10° SSE daylight
12 Feb - 11:26:36 10° SSE 11:30:10 13° SE 11:33:45 10° ESE visible
12 Feb - 13:24:17 10° SSW 13:32:31 37° SE 13:41:00 10° E visible
12 Feb - 15:26:56 10° WSW 15:36:06 61° S 15:45:38 10° E daylight
12 Feb - 17:30:56 10° W 17:40:12 59° SSW 17:49:50 10° ESE daylight
12 Feb - 19:35:25 10° W 19:43:48 35° SW 19:52:25 10° SSE daylight
12 Feb - 21:43:41 10° WSW 21:46:11 11° WSW 21:48:42 10° SW daylight
13 Feb - 11:02:45 10° SE 11:05:09 11° ESE 11:07:34 10° ESE visible
13 Feb - 12:59:20 10° SSW 13:07:24 35° SE 13:15:42 10° E visible
13 Feb - 15:01:48 10° WSW 15:10:55 60° SSE 15:20:23 10° E daylight
13 Feb - 17:05:45 10° W 17:15:00 60° SSW 17:24:38 10° ESE daylight
13 Feb - 19:10:11 10° W 19:18:40 37° SW 19:27:24 10° SSE daylight
13 Feb - 21:17:30 10° WSW 21:21:09 13° SW 21:24:50 10° SSW daylight
14 Feb - 12:34:24 10° SSW 12:42:18 33° SE 12:50:24 10° E visible
14 Feb - 14:36:40 10° WSW 14:45:44 59° SSE 14:55:08 10° E daylight
14 Feb - 16:40:34 10° W 16:49:49 61° S 16:59:25 10° ESE daylight
14 Feb - 18:44:56 10° W 18:53:31 38° SSW 19:02:23 10° SSE daylight
14 Feb - 20:51:39 10° W 20:56:06 14° SW 21:00:37 10° SSW daylight
15 Feb - 12:09:29 10° SSW 12:17:12 31° SE 12:25:06 10° E visible
15 Feb - 14:11:32 10° WSW 14:20:33 57° SSE 14:29:53 10° E daylight
15 Feb - 16:15:23 10° W 16:24:36 62° S 16:34:12 10° ESE daylight
15 Feb - 18:19:42 10° W 18:28:22 40° SSW 18:37:19 10° SSE daylight
15 Feb - 20:25:58 10° W 20:31:03 16° SW 20:36:12 10° SSW daylight
16 Feb - 11:44:36 10° SSW 11:52:07 29° SE 11:59:47 10° E visible
16 Feb - 13:46:25 10° WSW 13:55:23 56° SSE 14:04:38 10° E visible
16 Feb - 15:50:12 10° W 15:59:24 63° S 16:08:59 10° ESE daylight
16 Feb - 17:54:29 10° W 18:03:13 42° SSW 18:12:15 10° SE daylight
16 Feb - 20:00:24 10° W 20:05:59 17° SW 20:11:41 10° SSW daylight
17 Feb - 11:19:45 10° S 11:27:02 27° SE 11:34:28 10° E visible
17 Feb - 13:21:20 10° SW 13:30:13 54° SSE 13:39:24 10° E visible
17 Feb - 15:25:01 10° W 15:34:12 63° S 15:43:45 10° ESE daylight
17 Feb - 17:29:16 10° W 17:38:04 44° SSW 17:47:10 10° SE daylight
17 Feb - 19:34:54 10° W 19:40:55 19° SW 19:47:04 10° S daylight
18 Feb - 10:54:55 10° S 11:01:58 25° SE 11:09:07 10° E visible
18 Feb - 12:56:14 10° SW 13:05:03 52° SSE 13:14:09 10° E visible
18 Feb - 14:59:51 10° W 15:09:01 64° S 15:18:32 10° ESE daylight
18 Feb - 17:04:04 10° W 17:12:54 46° SSW 17:22:03 10° SE daylight
18 Feb - 19:09:27 10° W 19:15:51 20° SW 19:22:23 10° S daylight
19 Feb - 10:30:08 10° S 10:36:54 24° SE 10:43:45 10° E visible
19 Feb - 12:31:09 10° SW 12:39:54 50° SSE 12:48:54 10° E visible
19 Feb - 14:34:40 10° W 14:43:49 64° S 14:53:18 10° ESE daylight
19 Feb - 16:38:51 10° W 16:47:44 48° SSW 16:56:56 10° SE daylight
19 Feb - 18:44:04 10° W 18:50:46 22° SW 18:57:38 10° S daylight
